Weather in Tobseda

Russia / Nenets Autonomous Okrug     68°35′23″N   52°18′03″E
temp.,
°C
wind,
m/s
gust,
m/s
humid.,
%
clouds,
%
prec.,
mm/h
press.,
hPa
HPBL,
m
12 august, fri
fri1200:00+12wsw10149599 3.2 1000323
03:00+10w599516 3.2 1001242
06:00+11w69895 0.0 1001234
09:00+12w67795 0.0 1001134
12:00+13w8117473 0.1 1001195
15:00+11w10138166 0.1 1002395
18:00+11w11158698 0.0 1003617
21:00+10w12159051 0.0 1003738
13 august, sat
sat1300:00+10w12168795 0.1 1002699
03:00+10w121592100 0.1 1002910
06:00+10w121590100 0.4 1001688
09:00+10w111585100 1.8 10021284
12:00+9w131790100 1.3 10031349
15:00+9wnw141787100 2.4 10061322
18:00+9nw131686100 0.3 10081215
21:00+9nw12158396 0.5 10101170
14 august, sun
sun1400:00+9nw12147795 0.1 10121303
03:00+9nw121473100 0.3 10131284
06:00+9nw101276100 0.2 10141290
09:00+9nw91277100 0.4 10161170
12:00+9nw81078100 0.1 1017970
15:00+10wnw6875100 0.1 1018636
18:00+10w787981 0.0 1018418
21:00+10wsw5883100 0.0 1017242
15 august, mon
mon1500:00+10sw4677100 0.0 1017165
03:00+10sw61076100 0.0 1016213
06:00+10sw6108397 0.3 1015327
09:00+10w689471 0.9 1015310
12:00+11wnw91177100 0.0 1016373
15:00+11wnw9118061 0.1 1017288
18:00+11wnw7128097 0.2 1017375
21:00+10wnw10138634 0.3 1019691
16 august, tue
tue1600:00+10nw101279100 0.0 1020886
03:00+10nw91079100 0.1 1022995
06:00+10nw8979100 0.1 1023941
09:00+9nw6779100 0.1 1024887
12:00+9wnw5679100 0.0 1025594
15:00+9wsw2384100 0.1 1024286
18:00+10sse3481100 0.0 1023109
21:00+11sse6785100 0.1 1022145